Flag for Germany Weather past 2 weeks in Offenburg, Baden-Württemberg, Germany

Now
39 °F

Clear.


Feels Like: 37 °F
Forecast: 28 / 50 °F
Wind: 3 mph from Southeast

Location: Lahr - CAN-AFB

Current Time: Mar 6, 2015 at 10:59:08 PM

Latest Report: Mar 6, 2015 at 7:50 PM


Visibility: 10 mi

Pressure: 30.57 "Hg

Humidity: 70%

Dew point: 30 °F

Location of OffenburgLocation

Historic Weather in Offenburg — Graph

°F

Offenburg temperature yesterday

Maximum temperature yesterday: 46 °F (at 1:20 PM)
Minimum temperature yesterday: 34 °F (at 6:50 AM)
Average temperature yesterday: 42 °F

Past Weeks' High & Low Weather Summary

 TemperatureHumidityPressure
High57 °F (Feb 20, 2:20 PM)93% (Feb 19, 7:20 PM)30.69 "Hg (Feb 19, 7:20 PM)
Low28 °F (Mar 6, 7:50 AM)32% (Feb 26, 2:50 PM)29.53 "Hg (Feb 23, 2:20 PM)
Average44 °F64%30.10 "Hg
* Reported Feb 19 7:20 PM — Mar 6 7:50 PM, Offenburg, Weather by CustomWeather, © 2015

Note: Actual official high and low records may vary slightly from our data, if they occured in-between our weather recording intervals... More about our weather records

Advertising

Offenburg weather history for previous 24 hours

 ConditionsComfort  
Time TempWeatherWind HumidityBarometerVisibility
7:50 PM
Fri, Mar 6
39 °FClear.3 mph70%30.57 "Hg10 mi
7:20 PM41 °FClear.3 mph66%30.57 "Hg10 mi
6:50 PM45 °FClear.3 mph53%30.54 "Hg10 mi
6:20 PM46 °FClear.3 mph53%30.57 "Hg10 mi
5:50 PM48 °FSunny.3 mph46%30.57 "Hg10 mi
5:20 PM48 °FSunny.2 mph43%30.57 "Hg10 mi
4:50 PM50 °FSunny.2 mph40%30.57 "Hg10 mi
4:20 PM50 °FSunny.3 mph40%30.57 "Hg10 mi
3:50 PM50 °FSunny.2 mph40%30.57 "Hg10 mi
3:20 PM50 °FSunny.2 mph40%30.57 "Hg10 mi
2:50 PM50 °FSunny.3 mph40%30.60 "Hg10 mi
2:20 PM50 °FPassing clouds.5 mph43%30.60 "HgN/A
1:50 PM48 °FPassing clouds.6 mph46%30.63 "HgN/A
1:20 PM48 °FPassing clouds.5 mph43%30.63 "HgN/A
12:50 PM48 °FPassing clouds.3 mph43%30.63 "HgN/A
12:20 PM46 °FPassing clouds.5 mph53%30.66 "HgN/A
11:50 AM45 °FPassing clouds.1 mph57%30.66 "HgN/A
11:20 AM45 °FSunny.2 mph61%30.66 "Hg10 mi
10:50 AM43 °FSunny.3 mph61%30.66 "Hg10 mi
10:20 AM39 °FSunny.2 mph70%30.69 "Hg10 mi
9:50 AM37 °FSunny.3 mph70%30.69 "Hg10 mi
9:20 AM36 °FSunny.3 mph81%30.69 "Hg10 mi
8:50 AM34 °FSunny.3 mph81%30.69 "Hg10 mi
8:20 AM34 °FSunny.2 mph87%30.66 "Hg10 mi
7:50 AM28 °FSunny.1 mph93%30.69 "Hg10 mi
Weather by CustomWeather, © 2015

See weather overviewHow to use our weather pages